EW6133 Weather Reports


time (UTC)temp
C
wind
direction
speed
KPH
gust
KPH
rain 1hr
cm
rain 24hr
cm
rain mn
cm
humidity
%
barometer
mb
20260504215402 12 218 0.0 3.2 0.00 0.00 0.00 84 1014.1
20260504214904 12 134 0.0 3.2 0.00 0.00 0.00 84 1014.0
20260504214402 12 317 0.0 3.2 0.00 0.00 0.00 84 1014.0
20260504213905 12 89 0.0 1.6 0.00 0.00 0.00 84 1014.1
20260504213405 12 97 0.0 3.2 0.00 0.00 0.00 84 1014.1
20260504212920 12 160 1.6 3.2 0.00 0.00 0.00 84 1014.1
20260504212914 12 96 0.0 3.2 0.00 0.00 0.00 84 1014.1
20260504211927 12 29 0.0 1.6 0.00 0.00 0.00 84 1014.1
20260504211919 12 44 0.0 3.2 0.00 0.00 0.00 84 1014.1
20260504210904 12 153 0.0 3.2 0.00 0.00 0.00 84 1014.1
20260504210639 12 151 0.0 3.2 0.00 0.00 0.00 84 1014.2
20260504205903 12 96 0.0 4.8 0.00 0.00 0.00 84 1014.2
20260504205402 12 247 0.0 4.8 0.00 0.00 0.00 84 1014.1
20260504204902 12 248 0.0 4.8 0.00 0.00 0.00 83 1014.2
20260504204642 12 229 0.0 4.8 0.00 0.00 0.00 83 1014.2
20260504203904 12 235 0.0 1.6 0.00 0.00 0.00 83 1014.2
20260504203403 12 297 0.0 1.6 0.00 0.00 0.00 83 1014.2
20260504202904 12 288 0.0 1.6 0.00 0.00 0.00 83 1014.2
20260504202403 12 327 0.0 1.6 0.00 0.00 0.00 83 1014.1
20260504201904 12 323 0.0 3.2 0.00 0.00 0.00 83 1014.2
20260504201643 12 212 0.0 3.2 0.00 0.00 0.00 83 1014.2
20260504201142 12 43 0.0 1.6 0.00 0.00 0.00 83 1014.1
20260504200429 13 63 0.0 3.2 0.00 0.00 0.00 82 1014.0
20260504200421 12 63 0.0 1.6 0.00 0.00 0.00 82 1014.1
20260504195640 13 63 0.0 3.2 0.00 0.00 0.00 83 1014.0
20260504194905 13 195 0.0 3.2 0.00 0.00 0.00 83 1014.0
20260504194406 13 195 0.0 3.2 0.00 0.00 0.00 83 1013.9
20260504193904 13 190 0.0 3.2 0.00 0.00 0.00 83 1013.8
20260504193403 13 349 0.0 3.2 0.00 0.00 0.00 83 1013.8
20260504192904 13 182 0.0 1.6 0.00 0.00 0.00 83 1013.7
20260504192402 13 209 0.0 1.6 0.00 0.00 0.00 83 1013.7
20260504192140 13 209 0.0 1.6 0.00 0.00 0.00 83 1013.7
20260504191405 13 209 0.0 1.6 0.00 0.00 0.00 83 1013.8
20260504190904 13 205 0.0 0.0 0.00 0.00 0.00 83 1013.7
20260504190641 13 205 0.0 1.6 0.00 0.00 0.00 82 1013.7
20260504185903 13 205 0.0 1.6 0.00 0.00 0.00 82 1013.6
20260504185402 13 205 0.0 1.6 0.00 0.00 0.00 82 1013.6
20260504184903 13 205 0.0 3.2 0.00 0.00 0.00 81 1013.6
20260504184404 13 200 0.0 3.2 0.00 0.00 0.00 82 1013.5
20260504183904 13 80 0.0 1.6 0.00 0.00 0.00 81 1013.4
20260504183402 13 103 0.0 1.6 0.00 0.00 0.00 81 1013.3
20260504182902 14 103 0.0 1.6 0.00 0.00 0.00 81 1013.2
20260504182404 14 134 0.0 1.6 0.00 0.00 0.00 81 1013.3
20260504181903 14 134 0.0 1.6 0.00 0.00 0.00 80 1013.2
20260504181642 14 136 0.0 3.2 0.00 0.00 0.00 80 1013.2
20260504180903 14 16 0.0 3.2 0.00 0.00 0.00 80 1013.2
20260504180402 14 189 0.0 3.2 0.00 0.00 0.00 79 1013.2
20260504175904 14 189 0.0 3.2 0.00 0.00 0.00 79 1013.1
20260504175403 14 185 1.6 6.4 0.00 0.00 0.00 78 1013.1
20260504174903 15 49 0.0 6.4 0.00 0.00 0.00 77 1013.1
20260504174402 15 35 0.0 3.2 0.00 0.00 0.00 77 1013.1
20260504174142 15 274 0.0 4.8 0.00 0.00 0.00 77 1013.2
20260504173402 15 74 0.0 4.8 0.00 0.00 0.00 77 1013.2
20260504172902 15 40 0.0 4.8 0.00 0.00 0.00 77 1013.3
20260504172406 15 154 0.0 4.8 0.00 0.00 0.00 77 1013.3
20260504171903 15 28 0.0 4.8 0.00 0.00 0.00 77 1013.3
20260504171643 15 343 0.0 4.8 0.00 0.00 0.00 77 1013.3
20260504170904 15 19 0.0 3.2 0.00 0.00 0.00 77 1013.4
20260504170404 15 22 0.0 3.2 0.00 0.00 0.00 78 1013.6
20260504160341 15 196 1.6 4.8 0.00 0.00 0.00 78 1013.8
20260504160116 15 320 1.6 4.8 0.00 0.00 0.00 78 1013.8
20260504150833 14 273 0.0 3.2 0.00 0.00 0.00 79 1013.8
20260504150333 14 91 0.0 3.2 0.00 0.00 0.00 80 1013.8
20260504141333 14 262 0.0 3.2 0.00 0.00 0.00 81 1013.8
20260504140831 13 226 0.0 3.2 0.00 0.00 0.00 80 1013.8
20260504140333 13 319 1.6 8.0 0.00 0.00 0.00 80 1013.7
20260504130331 15 321 0.0 4.8 0.00 0.00 0.00 77 1013.6
20260504120305 15 278 0.0 1.6 0.00 0.00 0.00 78 1013.6
20260504110304 15 210 1.6 3.2 0.00 0.00 0.00 77 1013.8
20260504100233 13 19 1.6 4.8 0.00 0.00 0.00 81 1013.8
20260504081732 12 169 0.0 6.4 0.00 0.00 0.00 87 1013.2
20260504081231 12 344 1.6 8.0 0.00 0.00 0.00 88 1013.2
20260504080731 11 337 1.6 8.0 0.00 0.00 0.00 88 1013.2
20260504080258 11 11 1.6 6.4 0.00 0.00 0.00 89 1013.2
20260504080249 11 62 1.6 6.4 0.00 0.00 0.00 88 1013.2
20260504070231 11 16 0.0 6.4 0.00 0.00 0.00 90 1012.9
20260504060227 11 59 0.0 3.2 0.00 0.00 0.00 92 1012.3
20260504050723 11 327 0.0 3.2 0.00 0.00 0.00 92 1011.6
20260504050223 11 263 0.0 1.6 0.00 0.00 0.00 92 1011.6
20260504050001 11 263 0.0 1.6 0.00 0.00 0.00 92 1011.5
20260504045222 11 355 0.0 1.6 0.00 0.00 0.00 92 1011.4
20260504044720 11 28 0.0 1.6 0.00 0.00 0.00 92 1011.4
20260504044218 11 19 0.0 1.6 0.00 0.00 0.00 92 1011.4
20260504043714 11 19 0.0 3.2 0.00 0.00 0.00 92 1011.4
20260504043214 11 22 0.0 3.2 0.00 0.00 0.00 91 1011.4
20260504042948 11 355 0.0 3.2 0.00 0.00 0.00 91 1011.4
20260504042212 11 5 0.0 3.2 0.00 0.00 0.00 91 1011.3
20260504041949 11 100 0.0 3.2 0.00 0.00 0.00 91 1011.2
20260504041207 11 93 0.0 3.2 0.00 0.00 0.00 91 1011.3
20260504040707 11 331 0.0 3.2 0.00 0.00 0.00 91 1011.3
20260504040204 11 331 0.0 3.2 0.00 0.00 0.00 91 1011.2
20260504035704 11 262 0.0 1.6 0.00 0.00 0.00 91 1011.2
20260504035227 11 262 0.0 1.6 0.00 0.00 0.00 91 1011.3
20260504035218 11 262 0.0 1.6 0.00 0.00 0.00 91 1011.2
20260504034203 11 262 0.0 4.8 0.00 0.00 0.00 91 1011.2
20260504033701 11 262 0.0 4.8 0.00 0.00 0.00 91 1011.2
20260504033441 11 0 0.0 3.2 0.00 0.00 0.00 91 1011.2
20260504032703 11 5 0.0 3.2 0.00 0.00 0.00 91 1011.2
20260504032207 11 355 0.0 3.2 0.00 0.00 0.00 91 1011.1
20260504031703 11 275 0.0 3.2 0.00 0.00 0.00 91 1011.0
20260504031203 11 53 0.0 3.2 0.00 0.00 0.00 91 1011.0
20260504030704 11 348 0.0 1.6 0.00 0.00 0.00 91 1011.0
20260504030204 11 348 0.0 3.2 0.00 0.00 0.00 91 1011.0
20260504025702 11 348 0.0 3.2 0.00 0.00 0.00 91 1011.0
20260504025202 11 36 0.0 1.6 0.00 0.00 0.00 90 1010.9
20260504024703 11 49 0.0 3.2 0.00 0.00 0.00 90 1010.9
20260504024203 11 48 0.0 3.2 0.00 0.00 0.00 90 1010.9
20260504023702 12 185 0.0 3.2 0.00 0.00 0.00 90 1010.8
20260504023440 12 205 0.0 3.2 0.00 0.00 0.00 90 1010.8
20260504022942 12 5 0.0 1.6 0.00 0.00 0.00 90 1010.8
20260504022159 12 9 0.0 3.2 0.00 0.00 0.00 90 1010.7
20260504021652 12 36 0.0 3.2 0.00 0.00 0.00 90 1010.8
20260504021147 12 98 0.0 3.2 0.00 0.00 0.00 90 1010.9
20260504020642 12 272 0.0 3.2 0.00 0.00 0.00 90 1010.8
20260504020435 12 215 0.0 0.0 0.00 0.00 0.00 90 1010.7
20260504020430 12 342 0.0 1.6 0.00 0.00 0.00 90 1010.8
20260504015136 12 215 0.0 1.6 0.00 0.00 0.00 90 1010.8
20260504014635 12 215 0.0 1.6 0.00 0.00 0.00 90 1010.8
20260504014134 12 215 0.0 1.6 0.00 0.00 0.00 90 1010.8
20260504013635 12 215 0.0 1.6 0.00 0.00 0.00 90 1010.8
20260504013134 12 216 0.0 1.6 0.00 0.00 0.00 90 1010.9
20260504012631 12 215 0.0 3.2 0.00 0.00 0.00 90 1010.9
20260504012131 12 216 0.0 3.2 0.00 0.00 0.00 89 1010.9
20260504011631 12 202 0.0 3.2 0.00 0.00 0.00 90 1010.8
20260504011132 12 202 0.0 1.6 0.00 0.00 0.00 90 1010.8
20260504010631 12 202 0.0 1.6 0.00 0.00 0.00 90 1010.9
20260504010131 12 202 0.0 1.6 0.00 0.00 0.00 90 1010.8
20260504005631 12 202 0.0 1.6 0.00 0.00 0.00 90 1010.8
20260504005131 12 202 0.0 3.2 0.00 0.00 0.00 89 1010.8
20260504004631 12 202 0.0 3.2 0.00 0.00 0.00 89 1010.8
20260504004132 12 200 0.0 1.6 0.00 0.00 0.00 89 1010.8
20260504003632 12 201 0.0 0.0 0.00 0.00 0.00 89 1010.9
20260504003132 12 201 0.0 3.2 0.00 0.00 0.00 89 1010.9
20260504002632 12 201 0.0 3.2 0.00 0.00 0.00 88 1010.9
20260504002134 12 104 0.0 1.6 0.00 0.00 0.00 87 1010.8
20260504001910 13 103 0.0 3.2 0.00 0.00 0.00 87 1010.6
20260504001131 13 104 0.0 3.2 0.00 0.00 0.00 86 1010.6
20260504000634 13 103 0.0 1.6 0.00 0.00 0.00 86 1010.7
20260504000416 13 109 0.0 1.6 0.00 0.00 0.00 86 1010.7
20260503235632 13 243 0.0 4.8 0.00 0.00 0.00 86 1010.7
20260503235405 13 243 0.0 4.8 0.00 0.00 0.00 85 1010.8
20260503234629 13 89 0.0 1.6 0.00 0.00 0.00 84 1010.8
20260503234129 13 88 0.0 1.6 0.00 0.00 0.00 84 1010.8
20260503233628 13 88 0.0 1.6 0.00 0.00 0.00 83 1010.8
20260503233127 13 88 0.0 0.0 0.00 0.00 0.00 83 1010.8
20260503232627 13 88 0.0 0.0 0.00 0.00 0.00 82 1010.8
20260503232127 13 88 0.0 1.6 0.00 0.00 0.00 82 1010.7
20260503231901 13 88 0.0 1.6 0.00 0.00 0.00 82 1010.6
20260503231124 13 76 0.0 0.0 0.00 0.00 0.00 81 1010.5
20260503230625 13 76 0.0 1.6 0.00 0.00 0.00 80 1010.3
20260503230120 14 76 0.0 1.6 0.00 0.00 0.00 80 1010.2
20260503225619 14 75 0.0 1.6 0.00 0.00 0.00 79 1010.1
20260503225116 14 88 0.0 0.0 0.00 0.00 0.00 79 1010.1
20260503224618 14 88 0.0 0.0 0.00 0.00 0.00 79 1010.1
20260503224116 14 85 0.0 0.0 0.00 0.00 0.00 79 1010.0
20260503223638 14 86 0.0 0.0 0.00 0.00 0.00 79 1009.9
20260503223629 14 85 0.0 0.0 0.00 0.00 0.00 79 1009.9
20260503222852 14 85 0.0 0.0 0.00 0.00 0.00 78 1009.9
20260503222114 14 85 0.0 0.0 0.00 0.00 0.00 78 1009.9
20260503221611 14 86 0.0 0.0 0.00 0.00 0.00 78 1009.9
20260503221419 14 86 0.0 0.0 0.00 0.00 0.00 78 1009.8
20260503221126 14 85 0.0 0.0 0.00 0.00 0.00 78 1009.8
20260503220111 14 85 0.0 0.0 0.00 0.00 0.00 78 1009.8
20260503215609 14 86 0.0 0.0 0.00 0.00 0.00 78 1009.8